www.pogodaiklimat.ru

ПОГОДА в Портервилле, CA

  • Прогноз погоды в Портервилле
  • Монитор погоды в Портервилле
  • Климат в Портервилле

АРХИВ ПОГОДЫ в Портервилле

Время (UTC), дата Ветер
(напр.,м/с)
 
Видим.   Явления Облачность Т
(С)
Тd
(С)
f
(%)
Тe
(С)
Тes
(С)
Комфортность

P
(гПа)

Po
(гПа)
Тmin
(С)
Tmax
(С)
R
(мм)
SD
(см)
09:56 23.03 Ю  16 км    8/0 3300 м
[средняя] 
+7.8  +6.7  93  +5  +5    1021.9  1004.3         
10:56 23.03 В  16 км    8/0 3000 м
[средняя] 
+8.3  +7.2  93  +6  +6    1021.8  1004.0  +7.8  +11.7     
11:56 23.03 ЮВ  16 км    8/0 3300 м
[средняя] 
+8.3  +7.2  93  +6  +6    1021.3  1003.6         
12:56 23.03 Ю  16 км    5/2 1650 м
[средняя] 
+6.7  +6.1  96  +3  +3    1021.9  1004.0         
13:56 23.03 ЮВ  16 км    8/5 1950 м
[средняя] 
+8.3  +7.2  93  +5  +5    1022.2  1004.3         
14:56 23.03 Ю  16 км    10/2 1950 м
[средняя] 
+11.7  +9.4  86  +9  +10    1022.6  1005.0         
15:56 23.03 ЮЗ  16 км    10/8 1800 м
[средняя] 
+12.8  +10.0  83  +11  +11    1023.3  1005.3         
16:43 23.03 З  16 км    10/10 360 м  +13.0  +11.0  88  +12  +12      1006.0         
16:56 23.03 З  16 км    10/10 360 м  +12.8  +10.6  86  +11  +11    1024.0  1006.3  +6.7  +12.8     
17:56 23.03 СЗ  16 км  слабый дождь  10/10 360 м  +13.9  +11.7  87  +13  +13    1024.0  1006.3         
18:56 23.03 С  16 км    10/8 480 м
[средняя] 
+15.0  +11.1  77  +14  +14    1023.7  1006.0         
19:56 23.03 СЗ  16 км    10/10 660 м  +16.1  +10.6  70  +16  +16    1023.4  1005.6         
20:33 23.03 СЗ  16 км    10/8 780 м
[средняя] 
+17.0  +11.0  68  +17  +17      1005.3         
20:56 23.03 СЗ  16 км    10/8 750 м
[средняя] 
+16.1  +10.0  67  +16  +16    1023.1  1005.3         
21:56 23.03 С  16 км    10/10 1050 м  +16.1  +8.9  62  +16  +16    1022.9  1005.0         
22:56 23.03 СЗ  16 км    10/10 1200 м  +16.7  +8.9  60  +17  +17    1022.6  1005.0  +12.8  +16.7     
23:56 23.03 З  16 км    10/10 1050 м  +16.1  +9.4  64  +16  +16    1022.6  1005.0         
00:56 24.03 З  16 км    10/10 1230 м  +14.4  +9.4  72  +13  +13    1023.1  1005.3         
01:56 24.03   16 км    5/5 1290 м  +13.3  +8.9  75  +13  +13    1023.1  1005.3         
02:56 24.03 Ю  16 км    ясно  +11.1  +8.9  86  +10  +10    1023.4  1005.6         
03:56 24.03 ЮВ  16 км    ясно  +8.9  +7.8  93  +6  +6    1023.6  1005.6         
04:56 24.03 ЮВ  14 км    ясно  +8.3  +7.8  97  +7  +7    1023.8  1006.0  +7.8  +17.2     
05:56 24.03 Ю  16 км    5/5 1110 м  +7.2  +6.7  97  +5  +5    1024.2  1006.3         
06:56 24.03   16 км    10/10 1290 м  +8.3  +7.8  97  +7  +7    1024.2  1006.3         
07:56 24.03 Ю  13 км    10/10 1290 м  +8.3  +7.8  97  +7  +7    1024.5  1006.6         
09:56 24.03 Ю  8 км  дымка  ясно  +5.0  +5.0  100  +1  +1    1024.4  1006.6         
10:56 24.03 Ю  8 км  дымка  ясно  +5.0  +5.0  100  +2  +2    1024.6  1006.6  +5.0  +8.3     
11:56 24.03 ЮВ  6 км  дымка  ясно  +3.9  +3.9  100  -0  -0    1025.0  1007.0         
13:56 24.03 ЮВ  5 км  дымка  ясно  +6.1  +5.6  97  +3  +3    1025.6  1007.6         
14:56 24.03 нст  8 км  дымка  ясно  +8.9  +8.3  96  +7  +9    1026.2  1008.3         
15:08 24.03 Ю  8 км  дымка  5/5 120 м  +9.0  +8.0  93  +6  +8      1008.3         
15:35 24.03 Ю  10 км  дымка  8/8 120 м  +10.0  +9.0  93  +8  +8      1008.3         
15:56 24.03 Ю  10 км  дымка  8/8 120 м  +11.1  +9.4  89  +9  +10    1026.4  1008.3         
16:08 24.03 нст  10 км  дымка  8/8 180 м  +11.0  +9.0  87  +9  +11      1008.6         
16:37 24.03 Ю  14 км    5/5 240 м  +13.0  +10.0  82  +12  +15      1008.3         
16:56 24.03   14 км    ясно  +13.9  +10.0  77  +14  +24    1026.2  1008.3  +3.9  +13.9     
17:56 24.03 З  16 км    ясно  +16.1  +8.9  62  +16  +29  опасность
простуды 
1025.8  1008.0         
18:56 24.03 СЗ  16 км    ясно  +18.3  +8.9  54  +19  +32  опасность
простуды 
1025.0  1007.3         
19:56 24.03 нст  16 км    ясно  +18.3  +8.3  52  +19  +31  опасность
простуды 
1024.3  1006.6         
20:56 24.03   16 км    ясно  +19.4  +8.3  49  +20  +39  опасность
простуды 
1023.6  1006.0         
21:56 24.03   11 км    ясно  +20.0  +7.2  43  +21  +36  комфорт  1023.6  1006.0         
22:56 24.03 З  16 км    ясно  +20.0  +8.9  49  +21  +27  комфорт  1023.3  1005.6  +13.3  +21.1     
23:56 24.03 З  16 км    ясно  +20.0  +9.4  50  +22  +26  комфорт  1023.2  1005.3         
00:56 25.03 З  16 км    ясно  +16.1  +8.3  60  +16  +17    1023.1  1005.3         
01:56 25.03   16 км    ясно  +13.9  +8.3  69  +14  +14    1022.8  1005.0         
02:56 25.03   16 км    ясно  +11.7  +7.8  77  +11  +11    1022.8  1005.0         
03:56 25.03 ЮВ  16 км    ясно  +8.9  +7.2  89  +6  +6    1022.9  1005.0         
04:56 25.03 В  16 км    ясно  +9.4  +7.2  86  +8  +8    1022.6  1004.6  +8.3  +21.1     

 

Местоположение метеостанции Porterville Municipal Airport: широта 36.0333 долгота -119.0667 высота над уровнем моря 135 м.

В архиве по умолчанию представлена погода в Портервилле за последние 1-2 суток. Обновление информации о фактической погоде в базе происходит ежечасно! Архивные данные за месяц целиком и за предыдущие месяцы Вы можете получить, выбрав интересующий диапазон дат из раскрывающегося списка и нажав кнопку "Ввод!".

Внимание! Архив погоды МЕТАР в базе сайта хранится не более 60 дней. Нет смысла пытаться выбрать более раннюю дату.

Внимание! Время в таблицах - всемирное. Для получения местного времени необходимо прибавить поправку, которая в Портервилле равна -8 ч.

Ветер - указаны скорость ветра в м/с и направление, откуда дует ветер: С - северный, СВ - северо-восточный, В - восточный, ЮВ - юго-восточный, Ю - южный, ЮЗ - юго-западный, З - западный, СЗ - северо-западный.
Видимость - горизонтальная дальность видимости в метрах или километрах. При видимости от 1 до 10 км при отсутствии осадков обычно наблюдается дымка, при ухудшении видимости до 1 км и менее - туман. В сухую погоду видимость может ухудшаться дымом, пылью или мглою.
Атмосферные явления - указаны явления, наблюдавшиеся в указанный момент времени.
Облачность - указаны через наклонную черту верхняя и нижняя облачность в баллах и высота нижней границы облаков в метрах. Внимание: облачность, как и прочие метеорологические величины в США измеряются автоматическими метеостанциями. Указанные значения в баллах носят условный характер и показывают процент времени, в течение которого, в среднем, лазерный луч высотомера отражался от облаков обратно.
T - Температура воздуха - температура, измеренная на высоте 2 м над землей.
Td - Температура точки росы - температура, при понижении до которой содержащийся в воздухе водяной пар достигнет насыщения.
f - Относительная влажность воздуха - влажноcть воздуха, измеренная на высоте 2 м над землей.
Te - Эффективная температура - температура, которую ощущает одетый по сезону человек в тени. Характеристика душности погоды. При расчете учитывается влияние влажности воздуха и скорости ветра на теплоощущения человека.
Tes - Эффективная температура на солнце - температура, которую ощущает человек, с поправкой на солнечный нагрев. Характеристика знойности погоды. Зависит от высоты солнца над горизонтом, облачности и скорости ветра. Ночью, в пасмурную погоду, а также при ветре 12 м/с и более поправка равна нулю.
P - Атмосферное давление - приведенное к уровню моря атмосферное давление.
Po - Атмосферное давление - измеренное на уровне метеостанции атмосферное давление.
Tmin - Минимальная температура - минимум температуры воздуха на высоте 2 м над землей.
Tmax - Максимальная температура - максимум температуры воздуха на высоте 2 м над землей.
R - Количество осадков - Количество выпавших осадков за 3 или 6 часов, мм.
SD - Снежный покров - Высота снежного покрова, см.